Track STARLINK-1624 now! 10-day predictions STARLINK-1624 is classified as:
1 46130U 20057P 22182.77703558 -.00001026 00000-0 -49982-4 0 9992 2 46130 53.0533 203.1391 0001795 46.5254 313.5884 15.06387593104275